Waarnemingen

Advertentie
Mijn weer
Hyeres, Frankrijk (7667): temperatuur & dauwpunt: 20.09.2017 14:00:00 - 26.09.2017 14:00:00 (CEST)Hyeres, Frankrijk (7667): temperatuur 5cm: 20.09.2017 14:00:00 - 26.09.2017 14:00:00 (CEST)Hyeres, Frankrijk (7667): windsnelheid & windstoten: 20.09.2017 14:00:00 - 26.09.2017 14:00:00 (CEST)Hyeres, Frankrijk (7667): windrichting: 20.09.2017 14:00:00 - 26.09.2017 14:00:00 (CEST)Hyeres, Frankrijk (7667): luchtdruk: 20.09.2017 14:00:00 - 26.09.2017 14:00:00 (CEST)Hyeres, Frankrijk (7667): zicht: 20.09.2017 14:00:00 - 26.09.2017 14:00:00 (CEST)Hyeres, Frankrijk (7667): neerslag: 20.09.2017 14:00:00 - 26.09.2017 14:00:00 (CEST)
Datum & Tijd tt [°C] td [°C] tt 5cm [°C] ff [km/u] ff [kn] fx [km/u] fx [kn] dd ppp [hPa] vv [km] rr [mm]
26.09.2017 14:00:00 22,5 13,8 24,0 13 7 22 12 OZO 1020,4 41 0,0
26.09.2017 13:00:00 21,6 13,5 24,2 9 5 16 9 ZO 1020,4 32 0,0
26.09.2017 12:00:00 21,9 12,7 23,8 7 4 13 7 OZO 1020,4 52 0,0
26.09.2017 11:00:00 21,9 12,7 25,4 4 2 11 6 ONO 1020,1 59 0,2
26.09.2017 10:00:00 20,8 14,0 23,2 5 3 14 8 N 1019,7 20 0,0
26.09.2017 09:00:00 18,4 15,6 15,4 11 6 19 10 NW 1019,7 17 0,0
26.09.2017 08:00:00 15,2 14,2 13,9 5 3 14 8 N 1019,3 8 0,0
26.09.2017 07:00:00 15,5 14,7 14,1 4 2 10 5 NNW 1019,1 11 0,0
26.09.2017 06:00:00 15,0 14,4 13,4 6 3 9 5 NNW 1019,2 10 0,0
26.09.2017 05:00:00 15,7 14,9 14,2 6 4 10 5 NW 1018,9 7 0,0
26.09.2017 04:00:00 16,5 15,4 15,2 4 2 12 6 ONO 1018,7 14 0,0
26.09.2017 03:00:00 16,5 15,5 15,5 3 2 9 5 NNO 1018,7 3,2 0,4
26.09.2017 02:00:00 16,4 15,3 15,3 6 4 9 5 NNO 1018,8 7 0,0
26.09.2017 01:00:00 16,1 15,1 14,1 2 1 8 4 N 1019,0 6 0,0
26.09.2017 00:00:00 15,7 14,6 14,6 5 3 7 4 ONO 1019,1 6 0,0
25.09.2017 23:00:00 17,0 15,7 14,4 3 2 5 3 N 1019,3 7 0,0
25.09.2017 22:00:00 18,3 16,1 16,8 2 1 6 4 ZW 1019,4 12 0,0
25.09.2017 21:00:00 18,6 16,6 16,5 3 2 9 5 WZW 1019,1 10 0,0
25.09.2017 20:00:00 19,0 16,8 17,7 4 2 10 5 NO 1018,5 13 0,2
25.09.2017 19:00:00 19,8 16,2 19,7 9 5 21 11 WZW 1018,3 23 0,0
25.09.2017 18:00:00 20,2 16,2 20,5 12 7 21 12 ZW 1018,7 24 0,0
25.09.2017 17:00:00 21,4 15,2 23,8 7 4 21 11 ZO 1018,1 20 0,0
25.09.2017 16:00:00 21,8 16,1 24,2 13 7 23 13 ZO 1017,6 19 0,0
25.09.2017 15:00:00 21,3 16,5 23,9 14 8 23 13 OZO 1017,4 20 0,0
25.09.2017 14:00:00 21,9 16,6 24,8 12 6 22 12 ZO 1018,2 33 0,0
25.09.2017 13:00:00 22,6 16,4 26,2 13 7 24 13 ZO 1018,5 36 0,0
25.09.2017 12:00:00 21,8 15,4 24,2 9 5 16 9 O 1018,6 39 0,0
25.09.2017 11:00:00 20,7 15,9 20,9 2 1 11 6 NNO 1018,8 24 0,0
25.09.2017 10:00:00 18,6 15,8 17,9 7 4 16 9 NW 1018,4 16 0,0
25.09.2017 09:00:00 16,9 15,1 14,2 12 6 17 9 NW 1018,0 14 0,0
25.09.2017 08:00:00 14,4 13,1 13,7 4 2 11 6 NNO 1017,6 9 0,0
25.09.2017 07:00:00 14,6 13,6 12,3 6 3 11 6 NNW 1017,3 11 0,0
25.09.2017 06:00:00 13,6 12,5 11,8 6 3 10 5 N 1017,3 10 0,0
25.09.2017 05:00:00 12,8 11,7 11,9 6 4 11 6 N 1017,4 12 0,0
25.09.2017 04:00:00 14,1 13,1 11,7 6 3 9 5 N 1017,9 14 0,0
25.09.2017 03:00:00 13,4 12,6 12,0 8 4 9 5 NNO 1018,1 11 0,0
25.09.2017 02:00:00 13,7 12,6 11,6 4 2 8 4 N 1018,4 10 0,2
25.09.2017 01:00:00 13,7 12,8 - 5 3 8 4 N 1018,6 5 0,0
25.09.2017 00:00:00 14,0 13,0 12,0 6 3 8 4 NNO 1018,7 8 0,0
24.09.2017 23:00:00 14,7 13,4 12,7 4 2 6 3 N 1018,7 6 0,0
24.09.2017 22:00:00 16,3 15,2 - 5 3 8 4 NNO 1018,5 7 0,0
24.09.2017 21:00:00 16,7 15,4 - 5 3 8 4 ONO 1018,2 8 0,0
24.09.2017 20:00:00 18,3 15,9 17,2 5 3 8 5 ZW 1017,6 13 0,0
24.09.2017 19:00:00 20,1 15,7 21,1 2 1 10 5 Z 1017,2 19 0,0
24.09.2017 18:00:00 21,0 16,0 24,7 6 3 21 11 ZZW 1017,3 25 0,0
24.09.2017 17:00:00 22,7 15,3 28,4 9 5 22 12 ZZO 1017,2 37 0,0
24.09.2017 16:00:00 22,3 16,6 28,2 13 7 25 13 ZZO 1017,3 19 0,0
24.09.2017 15:00:00 22,3 16,3 27,9 16 9 35 19 ZZW 1016,9 19 0,0
24.09.2017 14:00:00 23,3 16,3 26,5 19 11 30 16 ZW 1017,0 20 0,0
24.09.2017 13:00:00 23,7 14,1 26,7 19 10 29 16 WZW 1017,3 37 0,0
24.09.2017 12:00:00 23,2 14,7 27,2 13 7 24 13 W 1017,6 32 0,0
24.09.2017 11:00:00 22,4 15,3 26,3 4 2 10 6 W 1017,9 46 0,0
24.09.2017 10:00:00 19,4 15,1 20,3 7 4 14 8 WNW 1018,1 20 0,0
24.09.2017 09:00:00 16,1 13,9 13,9 8 4 14 8 NW 1018,4 23 0,0
24.09.2017 08:00:00 13,8 12,7 - 8 4 13 7 NW 1018,4 15 -
24.09.2017 07:00:00 13,7 12,8 11,7 7 4 11 6 NW 1018,4 17 0,0
24.09.2017 06:00:00 13,8 12,0 12,8 5 3 13 7 NNO 1018,7 20 0,0
24.09.2017 05:00:00 15,0 14,0 12,5 6 3 9 5 NW 1019,0 24 0,0
24.09.2017 04:00:00 13,6 12,3 12,6 5 3 7 4 NNO 1019,2 16 0,0
24.09.2017 03:00:00 13,8 13,0 11,7 5 3 7 4 N 1019,7 13 0,0
24.09.2017 02:00:00 13,9 12,9 11,7 2 1 8 4 NNW 1020,0 16 0,0
24.09.2017 01:00:00 14,3 13,0 12,3 4 2 7 4 N 1020,0 15 0,0
24.09.2017 00:00:00 14,8 13,3 13,0 3 1 9 5 NO 1020,0 18 0,0
23.09.2017 23:00:00 15,3 14,0 13,2 4 2 7 4 N 1020,0 19 0,0
23.09.2017 22:00:00 16,0 14,0 14,0 2 1 7 4 N 1019,9 40 0,0
23.09.2017 21:00:00 18,4 15,5 - 5 3 9 5 W 1019,9 45 0,0
23.09.2017 20:00:00 19,0 15,5 - 5 3 18 10 WZW 1019,9 55 -
23.09.2017 19:00:00 20,5 15,3 21,0 11 6 18 10 ZZW 1019,9 59 0,0
23.09.2017 18:00:00 21,8 14,9 25,0 10 5 14 8 ZZW 1019,9 49 0,0
23.09.2017 17:00:00 21,5 15,3 24,1 12 7 19 10 ZW 1020,0 59 0,0
23.09.2017 16:00:00 21,9 14,5 25,8 15 8 22 12 Z 1020,4 60 0,0
23.09.2017 15:00:00 22,6 14,7 26,5 13 7 21 11 ZZW 1020,8 59 0,0
23.09.2017 14:00:00 23,1 13,8 30,0 12 7 19 11 ZZO 1021,1 60 0,0
23.09.2017 13:00:00 22,3 12,5 26,1 14 7 19 11 ZZO 1021,2 60 0,0
23.09.2017 12:00:00 20,9 16,3 - 9 5 16 9 ZZO 1021,7 60 0,0
23.09.2017 11:00:00 20,9 16,5 22,2 6 4 11 6 ZO 1021,8 55 0,0
23.09.2017 10:00:00 19,9 16,3 20,4 7 4 13 7 O 1021,7 19 0,0
23.09.2017 09:00:00 19,0 16,0 18,4 4 2 6 3 NNO 1021,6 48 0,0
23.09.2017 08:00:00 17,9 16,1 17,4 2 1 5 3 N 1021,3 38 0,0
23.09.2017 07:00:00 17,6 15,8 17,4 2 1 5 3 NNO 1021,2 47 0,0
23.09.2017 06:00:00 18,2 16,4 17,4 3 1 5 3 NNO 1020,9 47 0,0
23.09.2017 05:00:00 17,6 15,9 17,3 4 2 6 3 NNO 1020,9 40 0,0
23.09.2017 04:00:00 18,0 16,2 17,7 3 2 5 3 NO 1021,3 40 0,0
23.09.2017 03:00:00 17,9 16,2 17,1 0 0 7 4 N 1021,8 30 0,0
23.09.2017 02:00:00 17,9 16,4 17,1 4 2 5 3 NNO 1022,2 32 0,0
23.09.2017 01:00:00 17,9 16,2 17,5 2 1 4 2 NNO 1022,0 31 0,0
23.09.2017 00:00:00 17,8 16,5 14,6 3 2 4 2 NNO 1021,9 31 0,0
22.09.2017 23:00:00 16,6 15,1 14,6 4 2 7 4 N 1021,9 18 0,0
22.09.2017 22:00:00 18,1 16,8 16,3 0 0 7 4 N 1021,5 36 0,0
22.09.2017 21:00:00 17,8 16,5 15,7 4 2 8 4 NO 1021,4 31 0,0
22.09.2017 20:00:00 18,3 16,6 16,9 6 3 10 6 O 1021,1 48 0,0
22.09.2017 19:00:00 20,2 17,4 20,8 6 4 14 8 O 1021,0 53 0,0
22.09.2017 18:00:00 20,9 17,3 23,4 11 6 19 11 OZO 1021,0 49 0,0
22.09.2017 17:00:00 21,3 17,1 23,6 15 8 24 13 O 1020,9 46 0,0
22.09.2017 16:00:00 21,4 16,8 25,2 17 9 26 14 O 1020,6 19 0,0
22.09.2017 15:00:00 21,4 16,4 25,1 18 10 25 14 O 1020,7 23 0,0
22.09.2017 14:00:00 21,8 16,1 26,7 17 9 22 12 OZO 1020,9 18 0,0
22.09.2017 13:00:00 21,7 16,2 23,9 14 7 23 12 O 1021,2 48 0,0
22.09.2017 12:00:00 20,4 15,4 21,6 11 6 18 10 O 1021,4 60 0,0
22.09.2017 11:00:00 20,0 15,2 20,9 8 5 14 8 O 1021,0 52 0,0
22.09.2017 10:00:00 19,0 14,9 18,4 6 3 9 5 N 1020,8 36 0,0
22.09.2017 09:00:00 17,0 14,3 16,0 3 2 7 4 N 1020,4 20 0,0
22.09.2017 08:00:00 15,6 14,0 14,3 4 2 8 5 N 1020,1 31 0,0
22.09.2017 07:00:00 14,5 13,4 13,3 4 2 9 5 N 1019,7 33 0,0
22.09.2017 06:00:00 15,1 13,5 13,8 4 2 9 5 N 1019,6 38 0,0
22.09.2017 05:00:00 14,5 13,4 13,0 4 2 9 5 N 1019,7 40 0,0
22.09.2017 04:00:00 15,0 13,5 13,0 5 3 7 4 N 1019,7 44 0,0
22.09.2017 03:00:00 14,4 12,6 13,2 6 4 9 5 NNO 1020,0 44 0,0
22.09.2017 02:00:00 15,9 14,3 14,6 4 2 7 4 N 1020,2 35 0,0
22.09.2017 01:00:00 16,0 14,0 14,7 6 4 8 5 NNO 1020,0 33 0,0
22.09.2017 00:00:00 15,9 13,9 15,1 5 3 6 4 NNO 1019,9 33 0,0
21.09.2017 23:00:00 16,4 14,2 13,5 3 1 7 4 N 1019,8 34 0,0
21.09.2017 22:00:00 16,1 13,9 - 5 3 5 3 N 1019,7 29 0,0
21.09.2017 21:00:00 17,3 14,6 - 0 0 8 4 N 1019,4 40 0,0
21.09.2017 20:00:00 18,4 14,9 - 0 0 8 4 N 1019,0 55 -
21.09.2017 19:00:00 19,5 15,2 - 5 3 15 8 ZW 1018,8 55 0,0
21.09.2017 18:00:00 20,9 14,3 25,7 11 6 21 11 ZZW 1018,8 60 0,0
21.09.2017 17:00:00 21,2 13,9 26,2 13 7 19 11 ZZW 1018,7 60 0,0
21.09.2017 16:00:00 21,5 9,4 28,3 11 6 20 11 ZZW 1018,8 60 0,0
21.09.2017 15:00:00 21,8 11,5 28,1 13 7 21 12 ZZW 1019,2 60 0,0
21.09.2017 14:00:00 21,5 11,8 28,3 12 7 19 10 ZZO 1019,4 56 0,0
21.09.2017 13:00:00 21,1 10,9 26,2 11 6 22 12 ZO 1019,6 51 0,0
21.09.2017 12:00:00 20,0 12,7 25,3 12 6 23 12 ZO 1019,8 60 0,0
21.09.2017 11:00:00 19,5 12,0 25,8 9 5 18 10 OZO 1019,6 60 0,0
21.09.2017 10:00:00 19,8 9,1 23,1 0 0 10 6 N 1019,3 59 0,0
21.09.2017 09:00:00 15,6 8,1 12,3 4 2 9 5 N 1018,8 60 0,0
21.09.2017 08:00:00 9,5 5,9 5,6 8 4 10 5 N 1018,5 48 0,0
21.09.2017 07:00:00 7,1 4,9 4,8 9 5 11 6 NNO 1018,4 60 0,0
21.09.2017 06:00:00 6,9 4,7 5,3 9 5 12 6 NNO 1018,1 60 0,0
21.09.2017 05:00:00 7,6 5,1 5,2 5 3 9 5 N 1018,0 60 0,0
21.09.2017 04:00:00 8,0 5,3 5,3 0 0 11 6 N 1018,0 60 0,0
21.09.2017 03:00:00 8,6 5,9 6,1 5 3 10 6 N 1018,1 60 0,0
21.09.2017 02:00:00 9,5 5,9 7,7 9 5 13 7 NNO 1018,1 60 0,0
21.09.2017 01:00:00 12,5 6,3 7,0 5 3 15 8 N 1017,6 60 0,0
21.09.2017 00:00:00 12,2 8,3 7,1 5 3 10 5 W 1017,5 60 0,0
20.09.2017 23:00:00 11,2 8,2 8,4 6 4 10 5 N 1017,3 60 0,0
20.09.2017 22:00:00 12,6 9,8 9,4 3 2 8 4 N 1017,4 60 0,0
20.09.2017 21:00:00 14,1 9,3 10,3 2 1 4 2 N 1017,4 60 0,0
20.09.2017 20:00:00 16,8 9,2 13,0 2 1 8 5 ZO 1017,1 11 0,0
20.09.2017 19:00:00 19,1 10,9 - 5 3 11 6 ZO 1016,7 60 0,0
20.09.2017 18:00:00 19,9 10,0 23,9 8 4 15 8 ZZW 1016,7 60 0,0
20.09.2017 17:00:00 20,6 9,8 26,3 7 4 14 8 Z 1016,8 60 0,0
20.09.2017 16:00:00 21,0 9,9 28,1 6 3 19 11 Z 1017,1 60 0,0
20.09.2017 15:00:00 20,6 8,9 28,3 10 5 22 12 ZZW 1017,2 60 0,0
20.09.2017 14:00:00 20,8 8,1 28,7 10 5 18 10 ZO 1017,3 60 0,0

tt = temperatuur
td = dauwpunt
tt 5cm = temperatuur 5cm
ff = windsnelheid
fx = windstoten
dd = windrichting
ppp = luchtdruk
vv = zicht
rr = neerslag

Weerstations in de omgeving